This is the latest recevied weather packets stored in our database for station/object SP9TWP-3. If no packets are shown the sender has not sent any weather packets the latest 10 day(s).
| Time | Temp. | Humidity | Pressure | Rain* | Wind** | Luminosity | Snow |
|---|---|---|---|---|---|---|---|
| 1777912725 | 25° C | 23% | 1011.2 hPa | - | - | - | - |
| 1777912310 | 25° C | 23% | 1011.2 hPa | - | - | - | - |
| 1777911410 | 25.56° C | 25% | 1011.2 hPa | - | - | - | - |
| 1777910510 | 25.56° C | 25% | 1011.3 hPa | - | - | - | - |
| 1777909610 | 25.56° C | 25% | 1011.4 hPa | - | - | - | - |
| 1777908939 | 25.56° C | 25% | 1011.4 hPa | - | - | - | - |
| 1777908710 | 25.56° C | 25% | 1011.4 hPa | - | - | - | - |
| 1777908117 | 25.56° C | 25% | 1011.5 hPa | - | - | - | - |
| 1777907809 | 25.56° C | 25% | 1011.5 hPa | - | - | - | - |
| 1777906909 | 26.11° C | 24% | 1011.6 hPa | - | - | - | - |
| 1777906009 | 26.67° C | 26% | 1011.7 hPa | - | - | - | - |
| 1777905109 | 26.67° C | 24% | 1011.8 hPa | - | - | - | - |
| 1777904209 | 26.67° C | 24% | 1012 hPa | - | - | - | - |
| 1777903309 | 27.22° C | 21% | 1012.1 hPa | - | - | - | - |
| 1777902583 | 27.78° C | 22% | 1012.2 hPa | - | - | - | - |
| 1777902581 | 27.22° C | 22% | 1012.3 hPa | - | - | - | - |
| 1777902408 | 27.78° C | 22% | 1012.2 hPa | - | - | - | - |
| 1777901508 | 27.22° C | 22% | 1012.3 hPa | - | - | - | - |
| 1777900608 | 27.22° C | 22% | 1012.4 hPa | - | - | - | - |
| 1777899708 | 27.78° C | 22% | 1012.6 hPa | - | - | - | - |
| 1777898808 | 28.33° C | 22% | 1012.8 hPa | - | - | - | - |
| 1777897907 | 28.33° C | 20% | 1012.8 hPa | - | - | - | - |
| 1777897007 | 28.33° C | 20% | 1013 hPa | - | - | - | - |
| 1777896107 | 27.22° C | 21% | 1013 hPa | - | - | - | - |
| 1777895207 | 27.78° C | 21% | 1013.2 hPa | - | - | - | - |
* Rain since midnight (hover to see other rain measurements)
** Current wind speed in m/s (hover to see current wind gust speed)